Walnut Ridge, AR

7:54 AM CST on December 09, 2016 (GMT -0600)
Walnut Ridge Regional

Weather History for KARG - February, 2014

Change the Weather History Date:

Monday, February 24, 2014

  Actual Average Record
Temperature  
Mean Temperature 36 °F -  
Max Temperature 44 °F 49 °F 68 °F (2001)
Min Temperature 28 °F 34 °F 21 °F (2015)
Degree Days  
Heating Degree Days 29    
Moisture  
Dew Point 20 °F    
Average Humidity 53    
Maximum Humidity 69    
Minimum Humidity 36    
Precipitation  
Precipitation 0.00 in - - ()
Sea Level Pressure  
Sea Level Pressure 30.27 in    
Wind  
Wind Speed 12 mph (NE)    
Max Wind Speed 20 mph    
Max Gust Speed 23 mph    
Visibility 10 miles    
Events      
Averages and records for this station are not official NWS values.
T = Trace of Precipitation, MM = Missing Value Source: NWS Daily Summary

Daily Weather History Graph

Daily Weather History Graph

Search for Another Location

Airport or City:

Trip Planner

Search our weather history database for the weather conditions in past years. The results will help you decide how hot, cold, wet, or windy it might be!

Date:

Astronomy

Feb. 24, 2014 Rise Set
Actual Time 6:40 AM CST 5:53 PM CST
Civil Twilight 6:14 AM CST 6:19 PM CST
Nautical Twilight 5:44 AM CST 6:49 PM CST
Astronomical Twilight 5:14 AM CST 7:19 PM CST
Moon 2:33 AM CST (2/24) 1:00 PM CST (2/24)
Length of Visible Light 12h 05m
Length of Day
11h 13m
Waning Crescent, 28% of the Moon is Illuminated
Feb 24
Waning Crescent
Mar 1
New
Mar 8
First Quarter
Mar 16
Full
Mar 23
Last Quarter

Hourly Weather History & Observations

Time (CST) Temp. Windchill Dew Point Humidity Pressure Visibility Wind Dir Wind Speed Gust Speed Precip Events Conditions
12:15 AM 33.8 °F 25.3 °F 19.4 °F 56% 30.28 in 10.0 mi NNE 11.5 mph - N/A   Clear
12:35 AM 33.8 °F 24.8 °F 17.6 °F 52% 30.29 in 10.0 mi NNE 12.7 mph - N/A   Clear
12:55 AM 32.0 °F 22.5 °F 17.6 °F 55% 30.29 in 10.0 mi NNE 12.7 mph - N/A   Clear
1:15 AM 32.0 °F 23.0 °F 17.6 °F 55% 30.29 in 10.0 mi NNE 11.5 mph - N/A   Clear
1:35 AM 30.2 °F 19.8 °F 17.6 °F 60% 30.29 in 10.0 mi NNE 13.8 mph - N/A   Clear
1:55 AM 30.2 °F 20.8 °F 17.6 °F 60% 30.29 in 10.0 mi NNE 11.5 mph - N/A   Clear
2:15 AM 30.2 °F 20.8 °F 17.6 °F 60% 30.28 in 10.0 mi NNE 11.5 mph - N/A   Clear
2:35 AM 30.2 °F 20.2 °F 17.6 °F 60% 30.28 in 10.0 mi NNE 12.7 mph - N/A   Clear
2:55 AM 30.2 °F 20.8 °F 19.4 °F 64% 30.29 in 10.0 mi NNE 11.5 mph - N/A   Clear
3:15 AM 30.2 °F 21.3 °F 17.6 °F 60% 30.29 in 10.0 mi NNE 10.4 mph - N/A   Clear
3:35 AM 30.2 °F 21.3 °F 19.4 °F 64% 30.30 in 10.0 mi NNE 10.4 mph - N/A   Clear
3:55 AM 30.2 °F 21.9 °F 17.6 °F 60% 30.29 in 10.0 mi NE 9.2 mph - N/A   Clear
4:35 AM 28.4 °F 17.5 °F 19.4 °F 69% 30.29 in 10.0 mi NNE 13.8 mph - N/A   Clear
4:55 AM 28.4 °F 18.5 °F 19.4 °F 69% 30.30 in 10.0 mi NNE 11.5 mph - N/A   Clear
5:15 AM 28.4 °F 18.5 °F 19.4 °F 69% 30.31 in 10.0 mi NNE 11.5 mph - N/A   Clear
5:35 AM 28.4 °F 19.7 °F 19.4 °F 69% 30.31 in 10.0 mi NNE 9.2 mph - N/A   Clear
5:55 AM 28.4 °F 20.4 °F 19.4 °F 69% 30.33 in 10.0 mi NNE 8.1 mph - N/A   Clear
6:15 AM 28.4 °F 20.4 °F 17.6 °F 64% 30.34 in 10.0 mi NNE 8.1 mph - N/A   Clear
6:35 AM 28.4 °F 18.5 °F 17.6 °F 64% 30.35 in 10.0 mi NNE 11.5 mph - N/A   Clear
6:55 AM 28.4 °F 18.5 °F 19.4 °F 69% 30.35 in 10.0 mi NNE 11.5 mph 16.1 mph N/A   Clear
7:15 AM 28.4 °F 17.5 °F 19.4 °F 69% 30.34 in 10.0 mi NNE 13.8 mph 17.3 mph N/A   Clear
7:35 AM 28.4 °F 15.8 °F 19.4 °F 69% 30.31 in 10.0 mi NE 18.4 mph - N/A   Clear
7:55 AM 30.2 °F 17.8 °F 17.6 °F 60% 30.33 in 10.0 mi NE 19.6 mph - N/A   Clear
8:15 AM 30.2 °F 18.5 °F 17.6 °F 60% 30.33 in 10.0 mi NE 17.3 mph - N/A   Clear
8:35 AM 32.0 °F 20.5 °F 17.6 °F 55% 30.34 in 10.0 mi NE 18.4 mph - N/A   Clear
8:55 AM 33.8 °F 22.8 °F 17.6 °F 52% 30.35 in 10.0 mi NE 18.4 mph - N/A   Clear
9:15 AM 33.8 °F 22.8 °F 17.6 °F 52% 30.34 in 10.0 mi NE 18.4 mph - N/A   Clear
9:35 AM 33.8 °F 23.5 °F 17.6 °F 52% 30.35 in 10.0 mi NE 16.1 mph 19.6 mph N/A   Clear
9:55 AM 35.6 °F 26.2 °F 17.6 °F 48% 30.36 in 10.0 mi NE 15.0 mph - N/A   Clear
10:15 AM 35.6 °F 27.1 °F 17.6 °F 48% 30.36 in 10.0 mi NE 12.7 mph - N/A   Clear
10:35 AM 35.6 °F 27.5 °F 17.6 °F 48% 30.36 in 10.0 mi NE 11.5 mph - N/A   Clear
10:55 AM 37.4 °F 30.3 °F 17.6 °F 45% 30.36 in 8.0 mi NNE 10.4 mph - N/A   Clear
11:15 AM 37.4 °F 30.8 °F 17.6 °F 45% 30.36 in 9.0 mi NNE 9.2 mph - N/A   Clear
11:35 AM 37.4 °F 30.8 °F 15.8 °F 41% 30.37 in 10.0 mi NE 9.2 mph - N/A   Clear
11:55 AM 39.2 °F 33.0 °F 15.8 °F 39% 30.37 in 7.0 mi NE 9.2 mph - N/A   Clear
12:15 PM 39.2 °F 33.0 °F 17.6 °F 42% 30.34 in 10.0 mi NE 9.2 mph - N/A   Clear
12:35 PM 41.0 °F 34.3 °F 17.6 °F 39% 30.32 in 10.0 mi NNE 11.5 mph 16.1 mph N/A   Clear
12:55 PM 41.0 °F 34.7 °F 19.4 °F 42% 30.31 in 10.0 mi NE 10.4 mph 16.1 mph N/A   Clear
1:15 PM 41.0 °F 33.9 °F 17.6 °F 39% 30.29 in 10.0 mi NE 12.7 mph 19.6 mph N/A   Clear
1:35 PM 42.8 °F 34.8 °F 17.6 °F 36% 30.27 in 10.0 mi NE 17.3 mph 21.9 mph N/A   Clear
1:55 PM 42.8 °F 35.4 °F 17.6 °F 36% 30.26 in 10.0 mi NE 15.0 mph 23.0 mph N/A   Clear
2:15 PM 42.8 °F 35.8 °F 17.6 °F 36% 30.26 in 10.0 mi NE 13.8 mph - N/A   Clear
2:35 PM 42.8 °F 36.6 °F 19.4 °F 39% 30.25 in 10.0 mi ENE 11.5 mph 19.6 mph N/A   Clear
2:55 PM 42.8 °F 36.6 °F 19.4 °F 39% 30.24 in 10.0 mi NE 11.5 mph 17.3 mph N/A   Clear
3:15 PM 42.8 °F 36.2 °F 19.4 °F 39% 30.23 in 10.0 mi NE 12.7 mph - N/A   Clear
3:35 PM 44.6 °F 38.4 °F 19.4 °F 37% 30.22 in 10.0 mi NE 12.7 mph - N/A   Clear
3:55 PM 42.8 °F 35.8 °F 19.4 °F 39% 30.22 in 10.0 mi NE 13.8 mph - N/A   Clear
4:15 PM 42.8 °F 35.8 °F 19.4 °F 39% 30.21 in 10.0 mi ENE 13.8 mph - N/A   Clear
4:35 PM 42.8 °F 35.4 °F 19.4 °F 39% 30.20 in 10.0 mi NE 15.0 mph - N/A   Clear
4:55 PM 42.8 °F 35.8 °F 21.2 °F 42% 30.20 in 10.0 mi NE 13.8 mph - N/A   Mostly Cloudy
5:15 PM 42.8 °F 36.2 °F 21.2 °F 42% 30.20 in 10.0 mi NE 12.7 mph - N/A   Overcast
5:35 PM 41.0 °F 34.3 °F 21.2 °F 45% 30.20 in 10.0 mi NE 11.5 mph - N/A   Overcast
5:55 PM 41.0 °F 34.7 °F 24.8 °F 53% 30.20 in 10.0 mi ENE 10.4 mph - N/A   Overcast
6:15 PM 41.0 °F 34.7 °F 24.8 °F 53% 30.19 in 10.0 mi NE 10.4 mph - N/A   Overcast
6:35 PM 41.0 °F 36.4 °F 24.8 °F 53% 30.20 in 10.0 mi ENE 6.9 mph - N/A   Overcast
6:55 PM 41.0 °F 36.4 °F 26.6 °F 57% 30.21 in 10.0 mi NE 6.9 mph - N/A   Overcast
7:15 PM 41.0 °F 38.0 °F 26.6 °F 57% 30.20 in 10.0 mi NE 4.6 mph - N/A   Overcast
7:35 PM 39.2 °F 35.0 °F 28.4 °F 65% 30.19 in 10.0 mi NE 5.8 mph - N/A   Overcast
7:55 PM 39.2 °F 34.2 °F 26.6 °F 61% 30.19 in 10.0 mi NE 6.9 mph - N/A   Overcast
8:15 PM 39.2 °F 33.6 °F 26.6 °F 61% 30.19 in 10.0 mi NE 8.1 mph - N/A   Overcast
8:35 PM 39.2 °F 33.0 °F 24.8 °F 56% 30.18 in 10.0 mi NE 9.2 mph - N/A   Overcast
8:55 PM 39.2 °F 32.5 °F 24.8 °F 56% 30.18 in 10.0 mi NE 10.4 mph - N/A   Overcast
9:15 PM 39.2 °F 32.5 °F 24.8 °F 56% 30.18 in 10.0 mi NE 10.4 mph - N/A   Overcast
9:35 PM 39.2 °F 32.5 °F 23.0 °F 52% 30.18 in 10.0 mi NE 10.4 mph - N/A   Overcast
9:55 PM 39.2 °F 32.5 °F 23.0 °F 52% 30.18 in 10.0 mi NE 10.4 mph - N/A   Overcast
10:15 PM 39.2 °F 32.5 °F 24.8 °F 56% 30.19 in 10.0 mi NNE 10.4 mph - N/A   Overcast
10:35 PM 39.2 °F 32.5 °F 23.0 °F 52% 30.19 in 10.0 mi NNE 10.4 mph - N/A   Overcast
10:55 PM 39.2 °F 32.5 °F 21.2 °F 49% 30.19 in 10.0 mi NE 10.4 mph - N/A   Overcast
11:15 PM 39.2 °F 33.6 °F 24.8 °F 56% 30.19 in 10.0 mi NNE 8.1 mph - N/A   Overcast
11:35 PM 39.2 °F 34.2 °F 24.8 °F 56% 30.20 in 10.0 mi NNE 6.9 mph - N/A   Overcast
11:55 PM 39.2 °F 34.2 °F 23.0 °F 52% 30.19 in 10.0 mi NE 6.9 mph - N/A   Overcast